Change the Weather History Date:

Saturday, December 7, 2013

  Actual Average (KPOU) Record (KPOU)
Temperature  
Mean Temperature 33 °F 34 °F  
Max Temperature 39 °F 43 °F 60 °F (2001)
Min Temperature 26 °F 25 °F 1 °F (1964)
Degree Days  
Heating Degree Days 32 31  
Month to date heating degree days 208  
Since 1 July heating degree days 1486  
Cooling Degree Days 0 0  
Month to date cooling degree days 0  
Year to date cooling degree days 672  
Moisture  
Dew Point 25 °F    
Average Humidity 73    
Maximum Humidity 96    
Minimum Humidity 48    
Precipitation  
Precipitation 0.00 in 0.12 in 2.12 in (2011)
Month to date precipitation 0.86  
Year to date precipitation 43.86  
Sea Level Pressure  
Sea Level Pressure 30.29 in    
Wind  
Wind Speed 5 mph (NW)    
Max Wind Speed 10 mph    
Max Gust Speed 17 mph    
Visibility 9 miles    
Events Rain    
T = Trace of Precipitation, MM = Missing Value Source: NWS Daily Summary

Daily Weather History Graph

Daily Weather History Graph

Search for Another Location

Airport or City:

Trip Planner

Search our weather history database for the weather conditions in past years. The results will help you decide how hot, cold, wet, or windy it might be!

Date:

Astronomy

Dec. 07, 2013 Rise Set
Actual Time 7:10 AM EST 4:27 PM EST
Civil Twilight 6:38 AM EST 4:58 PM EST
Nautical Twilight 6:04 AM EST 5:32 PM EST
Astronomical Twilight 5:30 AM EST 6:06 PM EST
Moon 10:51 AM EST (12/7) 10:08 PM EST (12/7)
Length of Visible Light 10h 19m
Length of Day
9h 16m
Waxing Crescent, 29% of the Moon is Illuminated
Dec 7
Waxing Crescent
Dec 9
First Quarter
Dec 17
Full
Dec 25
Last Quarter
Jan 1
New

Hourly Weather History & Observations

Time (EST) Temp. Windchill Dew Point Humidity Pressure Visibility Wind Dir Wind Speed Gust Speed Precip Events Conditions
12:06 AM 33.1 °F 28.7 °F 32.0 °F 96% 30.13 in 10.0 mi North 4.6 mph - 0.00 in Rain Light Rain
12:22 AM 33.1 °F 28.7 °F 32.0 °F 96% 30.13 in 10.0 mi NNE 4.6 mph - 0.00 in Rain Light Rain
12:54 AM 33.1 °F 27.7 °F 30.9 °F 92% 30.12 in 9.0 mi NNE 5.8 mph - 0.00 in   Overcast
1:13 AM 33.1 °F 28.7 °F 30.9 °F 92% 30.13 in 10.0 mi North 4.6 mph - N/A   Overcast
1:54 AM 33.1 °F 26.9 °F 30.9 °F 92% 30.15 in 8.0 mi North 6.9 mph - N/A   Overcast
2:54 AM 33.1 °F - 32.0 °F 96% 30.18 in 5.0 mi Calm Calm - N/A   Overcast
3:42 AM 33.1 °F - 32.0 °F 96% 30.16 in 6.0 mi Calm Calm - N/A   Overcast
3:50 AM 33.8 °F - 32.0 °F 93% 30.16 in 5.0 mi Calm Calm - N/A   Overcast
3:54 AM 33.1 °F - 32.0 °F 96% 30.17 in 4.0 mi Calm Calm - N/A   Overcast
4:54 AM 33.1 °F - 32.0 °F 96% 30.19 in 6.0 mi Calm Calm - N/A   Overcast
5:54 AM 33.1 °F - 30.9 °F 92% 30.19 in 6.0 mi Calm Calm - N/A   Overcast
6:54 AM 33.1 °F 24.9 °F 27.0 °F 78% 30.22 in 10.0 mi NW 10.4 mph - N/A   Partly Cloudy
7:54 AM 34.0 °F 26.0 °F 26.1 °F 73% 30.25 in 10.0 mi NW 10.4 mph - N/A   Clear
8:54 AM 35.1 °F 30.1 °F 27.0 °F 72% 30.30 in 10.0 mi WNW 5.8 mph - N/A   Clear
9:54 AM 35.1 °F 27.9 °F 26.1 °F 70% 30.32 in 10.0 mi NW 9.2 mph - N/A   Mostly Cloudy
10:54 AM 36.0 °F 28.5 °F 27.0 °F 70% 30.32 in 10.0 mi NW 10.4 mph - N/A   Overcast
11:54 AM 36.0 °F 28.5 °F 24.1 °F 62% 30.31 in 10.0 mi NNW 10.4 mph - N/A   Mostly Cloudy
12:54 PM 37.0 °F 29.8 °F 24.1 °F 59% 30.31 in 10.0 mi NNW 10.4 mph 17.3 mph N/A   Mostly Cloudy
1:54 PM 39.0 °F 32.8 °F 21.9 °F 50% 30.31 in 10.0 mi WNW 9.2 mph - N/A   Partly Cloudy
2:54 PM 37.9 °F 32.7 °F 19.9 °F 48% 30.32 in 10.0 mi Variable 6.9 mph - N/A   Clear
3:54 PM 36.0 °F 30.3 °F 19.0 °F 50% 30.35 in 10.0 mi NW 6.9 mph - N/A   Clear
4:54 PM 33.1 °F 26.9 °F 17.1 °F 52% 30.37 in 10.0 mi NW 6.9 mph - N/A   Clear
5:54 PM 30.9 °F 24.3 °F 18.0 °F 59% 30.39 in 10.0 mi NW 6.9 mph - N/A   Clear
6:54 PM 30.0 °F 25.2 °F 16.0 °F 56% 30.43 in 10.0 mi North 4.6 mph - N/A   Clear
7:54 PM 30.0 °F 21.1 °F 17.1 °F 59% 30.46 in 10.0 mi NW 10.4 mph - N/A   Clear
8:54 PM 28.9 °F 21.1 °F 16.0 °F 58% 30.48 in 10.0 mi NW 8.1 mph - N/A   Clear
9:54 PM 28.0 °F 22.8 °F 15.1 °F 58% 30.49 in 10.0 mi WNW 4.6 mph - N/A   Clear
10:54 PM 27.0 °F 19.5 °F 14.0 °F 58% 30.51 in 10.0 mi WNW 6.9 mph - N/A   Clear
11:54 PM 26.1 °F 20.5 °F 14.0 °F 60% 30.53 in 10.0 mi West 4.6 mph - N/A   Clear